Track ONEWEB-0101 now! 10-day predictions ONEWEB-0101 is classified as:
1 48049U 21025H 22185.88384752 -.00000326 00000-0 -92693-3 0 9993 2 48049 87.9058 246.8692 0002434 99.6236 260.5168 13.13467562 64038